{"data":{"norad_id":68033,"epoch":"2026-05-24T19:57:44.963424Z","epoch_age_seconds":88909,"freshness":"FRESH","line1":"1 68033U 26040U   26144.83177041  .00026894  00000+0  83210-3 0  9995","line2":"2 68033  97.2848  93.8792 0001756  95.3324 264.8119 15.33455605 13139","mean_motion":15.33455605,"eccentricity":0.0001756,"inclination_deg":97.2848,"raan_deg":93.8792,"arg_perigee_deg":95.3324,"mean_anomaly_deg":264.8119,"bstar":0.0008321,"rev_number":1313,"period_min":93.90555522473,"perigee_km":464.30987694327,"apogee_km":466.71336633919,"semimajor_km":6843.6486216412,"source":"CELESTRAK","updated_at":"2026-05-25T13:38:21.808048Z"}}